Location: Newark
(34.9500°N, 139.9667°E)
Time: 10:54:34
(UTC+00:00)

Altair - Pass Details

Date: 15 December 2019
Orbit: 1502 x 1682 km, 47.2° (Epoch: 27 January)

Event Time Altitude Azimuth Distance (km) Brightness Sun altitude
Exits shadow 19:30:17 13° 222° (SW) 3,398 9.0 -25.9°
Drops below altitude 10° 19:32:34 10° 208° (SSW) 3,662 9.3 -25.5°
Sets 19:37:33 0° 185° (S) 4,664 10.1 -24.5°
